THORAD AGENA D DEB, 4768

Orbit data source: Space-Track

THORAD AGENA D DEB, 4768 is space debris in SSO originally from a launch on Wed, 08 Apr 1970 UTC launched from the Air Force Western Test Range (AFWTR). Debris objects in space refer to the collection of defunct objects orbiting the Earth. Examples of debris include non-operational satellites, rocket bodies, and fragments generated from explosions, collisions, or faulty payload assembly.

Loading next visibility...
Identifier
4768, 1970-025DN
Orbit
SSO
Country
Flag of USUS
Related business
Manufacturer
Unknown
Mission
Spacecraft
Bus & Motor
Unknown
Mass
Unknown
Launch date (UTC)
1970-04-08 (56 years ago)
Launch vehicle
Unknown
Launch site
Air Force Western Test Range (AFWTR)
Object type
Payload
Rocket body
Debris
Shape & HBR
Unknown shape, 0.1 m
Radar Cross Section
Medium (>0.1 m² and <1 m²)

Expand to show TLE details & history
Last TLE update: 15 hours ago

TLE from 15 hours ago
0 THORAD AGENA D DEB
1 04768U 70025DN  26255.70224589  .00000196  00000-0  26994-3 0  9995
2 04768 100.1575 306.2234 0030877 156.4571 332.4576 13.71793940809854
Epoch: 2026-09-12T16:51Z
TLE epoch observation values (Epoch: 2026-09-12T16:51:14.044Z)
Latitude
50.24281°
Longitude
-105.92133°
Altitude
980.875 km
Speed
7.376 km/s
True Right ascension
09h 14m 22s
True Declination
50° 04' 44"
Sunlit
Object was in daylight at epoch
Visualization orbit readout
Latitude
Unknown
Longitude
Unknown
Altitude
Unknown
Speed
Unknown
Apparent Right ascension
Unknown
Apparent Declination
Unknown
Sunlit
N/A
Visualization observer readout
Local Sidereal Time
23:50:23
Azimuth
Unknown
Elevation
Unknown
Doppler factor
Unknown
Orbital elements
Apogee altitude
1,013.186 km
Perigee altitude
967.682 km
Semi-major axis
7,368.571 km
Eccentricity
0.00309
Inclination
100.1575°
RAAN
306.2234°
Arg. of periapsis
156.4571°
True anomaly
332.29343°
Mean anomaly
332.4576°
Eccentric anomaly
332.37557°
Mean motion
3.43138 °/min
Orbital period
104.91 mins
BSTAR
0.00026994
Loading maneuver chart data...
Computing Atmospheric mass density...

Documentation

Showing up to 5 results
|